Location: *
(40.4000°N, 15.1200°E)
Time: 16:10:11
(UTC+00:00)

SJ-6B - Pass Details

Date: 09 April 2020
Orbit: 509 x 582 km, 97.6° (Epoch: 05 June)

Event Time Altitude Azimuth Distance (km) Brightness Sun altitude
Exits shadow 18:39:28 - 160° (SSE) 1,939 5.2 -13.0°
Reaches altitude 10° 18:39:36 10° 159° (SSE) 1,887 5.1 -13.0°
Maximum altitude 18:43:41 72° 76° (ENE) 616 2.9 -13.7°
Drops below altitude 10° 18:47:49 10° 352° (N) 1,907 6.0 -14.4°
Sets 18:49:59 0° 351° (N) 2,809 6.9 -14.8°
